Weather History for Price, UT

Change the Weather History Date:

Sunday, October 14, 2012

  Actual Average Record
Temperature  
Mean Temperature 50 °F -  
Max Temperature 64 °F 62 °F 78 °F (1992)
Min Temperature 37 °F 35 °F 24 °F (1969)
Degree Days  
Heating Degree Days 14    
Moisture  
Dew Point 34 °F    
Average Humidity 54    
Maximum Humidity 76    
Minimum Humidity 30    
Precipitation  
Precipitation 0.00 in - - ()
Sea Level Pressure  
Sea Level Pressure 30.29 in    
Wind  
Wind Speed 7 mph (NNE)    
Max Wind Speed 12 mph    
Max Gust Speed -    
Visibility 10 miles    
Events      
Averages and records for this station are not official NWS values.
T = Trace of Precipitation, MM = Missing Value Source: NWS Daily Summary

Daily Weather History Graph

Daily Weather History Graph

Search for Another Location

Airport:

Trip Planner

Search our weather history database for the weather conditions in past years. The results will help you decide how hot, cold, wet, or windy it might be!

Date:

Astronomy

Oct. 14, 2012 Rise Set
Actual Time 7:32 AM MDT 6:44 PM MDT
Civil Twilight 7:05 AM MDT 7:11 PM MDT
Nautical Twilight 6:34 AM MDT 7:42 PM MDT
Astronomical Twilight 6:03 AM MDT 8:13 PM MDT
Moon 6:35 AM MDT (10/14) 6:06 PM MDT (10/14)
Length of Visible Light 12h 06m
Length of Day
11h 11m
Waning Crescent, 1% of the Moon is Illuminated
Oct 14
Waning Crescent
Oct 15
New
Oct 21
First Quarter
Oct 29
Full
Nov 6
Last Quarter

Hourly Weather History & Observations

Time (MDT) Temp. Windchill Dew Point Humidity Pressure Visibility Wind Dir Wind Speed Gust Speed Precip Events Conditions
12:53 AM 50.0 °F - 35.1 °F 57% 30.23 in 10.0 mi NW 11.5 mph - N/A   Clear
1:53 AM 48.9 °F - 36.0 °F 61% 30.23 in 10.0 mi WNW 8.1 mph - N/A   Clear
2:53 AM 46.0 °F 42.5 °F 35.1 °F 66% 30.25 in 10.0 mi WNW 6.9 mph - N/A   Clear
3:53 AM 41.0 °F 36.4 °F 33.1 °F 73% 30.27 in 10.0 mi North 6.9 mph - N/A   Clear
4:53 AM 39.9 °F 35.8 °F 32.0 °F 73% 30.30 in 10.0 mi North 5.8 mph - N/A   Clear
5:53 AM 39.0 °F 35.7 °F 32.0 °F 76% 30.32 in 10.0 mi North 4.6 mph - N/A   Clear
6:53 AM 37.9 °F 35.5 °F 30.9 °F 76% 30.35 in 10.0 mi North 3.5 mph - N/A   Clear
7:53 AM 39.9 °F - 30.9 °F 70% 30.38 in 10.0 mi Calm Calm - N/A   Clear
8:53 AM 50.0 °F - 33.1 °F 52% 30.35 in 10.0 mi Calm Calm - N/A   Clear
9:53 AM 50.0 °F - 36.0 °F 59% 30.36 in 10.0 mi Calm Calm - N/A   Clear
10:53 AM 54.0 °F - 37.0 °F 53% 30.35 in 10.0 mi SSE 5.8 mph - N/A   Clear
11:53 AM 57.0 °F - 36.0 °F 45% 30.33 in 10.0 mi Variable 3.5 mph - N/A   Clear
12:53 PM 60.1 °F - 32.0 °F 35% 30.30 in 10.0 mi SE 6.9 mph - N/A   Clear
1:53 PM 62.1 °F - 32.0 °F 32% 30.26 in 10.0 mi SSE 6.9 mph - N/A   Clear
2:53 PM 63.0 °F - 30.9 °F 30% 30.24 in 10.0 mi Variable 3.5 mph - N/A   Clear
3:53 PM 64.0 °F - 33.1 °F 31% 30.25 in 10.0 mi SSE 6.9 mph - N/A   Clear
4:53 PM 64.0 °F - 33.1 °F 31% 30.24 in 10.0 mi South 6.9 mph - N/A   Clear
5:53 PM 62.1 °F - 33.1 °F 34% 30.25 in 10.0 mi South 5.8 mph - N/A   Clear
6:53 PM 59.0 °F - 34.0 °F 39% 30.26 in 10.0 mi Calm Calm - N/A   Clear
7:53 PM 51.1 °F - 36.0 °F 56% 30.30 in 10.0 mi NNE 9.2 mph - N/A   Clear
8:53 PM 50.0 °F - 35.1 °F 57% 30.26 in 10.0 mi NNE 8.1 mph - N/A   Clear
9:53 PM 48.0 °F - 35.1 °F 61% 30.27 in 10.0 mi NNE 9.2 mph - N/A   Clear
10:53 PM 46.9 °F - 35.1 °F 63% 30.26 in 10.0 mi NNE 8.1 mph - N/A   Clear
11:53 PM 45.0 °F 40.6 °F 35.1 °F 68% 30.25 in 10.0 mi NNE 8.1 mph - N/A   Clear